Tracking 23764 objects as of 17-Oct-2021
HD Live streaming from Space Station
objects crossing your sky now

COSMOS 1247

Track COSMOS 1247 now!
COSMOS 1247 is classified as:


NORAD ID: 12303
Int'l Code: 1981-016A
Perigee: 2,397.7 km
Apogee: 37,642.8 km
Inclination: 66.5 °
Period: 711.1 minutes
Semi major axis: 26391 km
RCS: 8.0719 m2 (large)
Launch date: February 19, 1981
Source: Commonwealth of Independent States (former USSR) (CIS)
Launch site: PLESETSK MISSILE AND SPACE COMPLEX (PKMTR)
aabbcc
Your satellite tracking list
Your tracking list is empty




NASA's NSSDC Master Catalog

Two Line Element Set (TLE):
1 12303U 81016A   21288.92476973 -.00000434  00000-0  00000-0 0  9995
2 12303  66.5311 129.5805 6677417  20.6435 357.0670  2.02494119300644
Source of the keplerian elements: AFSPC